Corona, CA

2:38 AM PDT on June 27, 2017 (GMT -0700)
Corona Municipal

Weather History for KAJO - March, 2013

Change the Weather History Date:

Sunday, March 10, 2013

  Actual Average (KCNO) Record (KCNO)
Temperature  
Mean Temperature 53 °F -  
Max Temperature 72 °F 66 °F 87 °F (2004)
Min Temperature 34 °F 41 °F 36 °F (2013)
Degree Days  
Heating Degree Days 12    
Growing Degree Days 3 (Base 50)    
Moisture  
Dew Point 34 °F    
Average Humidity 59    
Maximum Humidity 100    
Minimum Humidity 14    
Precipitation  
Precipitation 0.00 in - - ()
Sea Level Pressure  
Sea Level Pressure 30.20 in    
Wind  
Wind Speed 6 mph (NNW)    
Max Wind Speed 23 mph    
Max Gust Speed 36 mph    
Visibility 10 miles    
Events      
Averages and records for this station are not official NWS values.
T = Trace of Precipitation, MM = Missing Value Source: NWS Daily Summary

Daily Weather History Graph

Daily Weather History Graph

Search for Another Location

Airport or City:

Trip Planner

Search our weather history database for the weather conditions in past years. The results will help you decide how hot, cold, wet, or windy it might be!

Date:

Astronomy

Mar. 10, 2013 Rise Set
Actual Time 7:07 AM PDT 6:54 PM PDT
Civil Twilight 6:42 AM PDT 7:19 PM PDT
Nautical Twilight 6:13 AM PDT 7:48 PM PDT
Astronomical Twilight 5:44 AM PDT 8:17 PM PDT
Moon 6:08 AM PDT (3/10) 6:07 PM PDT (3/10)
Length of Visible Light 12h 37m
Length of Day
11h 47m
Waning Crescent, 1% of the Moon is Illuminated
Mar 10
Waning Crescent
Mar 11
New
Mar 19
First Quarter
Mar 27
Full
Apr 2
Last Quarter

Hourly Weather History & Observations

Time (PDT) Temp. Windchill Dew Point Humidity Pressure Visibility Wind Dir Wind Speed Gust Speed Precip Events Conditions
12:56 AM 36.9 °F 34.3 °F 36.9 °F 100% 30.23 in 10.0 mi ENE 3.5 mph - N/A   Clear
1:56 AM 38.8 °F - 38.8 °F 100% 30.22 in 10.0 mi Calm Calm - N/A   Clear
3:56 AM 34.9 °F - 34.9 °F 100% 30.23 in 10.0 mi Calm Calm - N/A   Clear
4:56 AM 34.9 °F 29.9 °F 34.9 °F 100% 30.22 in 8.0 mi NNE 5.8 mph - N/A   Clear
5:56 AM 34.0 °F 29.8 °F 34.0 °F 100% 30.22 in 9.0 mi SE 4.6 mph - N/A   Clear
6:56 AM 38.8 °F 35.4 °F 38.8 °F 100% 30.24 in 10.0 mi West 4.6 mph - N/A   Clear
7:56 AM 37.9 °F - 37.9 °F 100% 30.25 in 8.0 mi Calm Calm - N/A   Clear
8:56 AM 48.9 °F - 46.9 °F 93% 30.26 in 10.0 mi Variable 3.5 mph - N/A   Clear
9:56 AM 66.9 °F - 25.2 °F 21% 30.25 in 10.0 mi East 15.0 mph - N/A   Clear
10:56 AM 68.9 °F - 21.0 °F 16% 30.23 in 10.0 mi NE 18.4 mph 35.7 mph N/A   Clear
11:56 AM 72.9 °F - 21.0 °F 14% 30.21 in 10.0 mi NE 23.0 mph 29.9 mph N/A   Clear
12:56 PM 70.9 °F - 37.9 °F 30% 30.21 in 10.0 mi WNW 10.4 mph 18.4 mph N/A   Clear
1:56 PM 72.9 °F - 31.1 °F 21% 30.18 in 10.0 mi WNW 4.6 mph - N/A   Clear
2:56 PM 72.9 °F - 32.9 °F 23% 30.16 in 10.0 mi WSW 10.4 mph - N/A   Clear
3:56 PM 72.9 °F - 34.9 °F 25% 30.15 in 10.0 mi West 10.4 mph - N/A   Clear
4:56 PM 72.9 °F - 34.9 °F 25% 30.14 in 10.0 mi West 12.7 mph - N/A   Clear
5:56 PM 70.0 °F - 31.1 °F 24% 30.15 in 10.0 mi West 10.4 mph - N/A   Clear
6:56 PM 65.8 °F - 34.0 °F 31% 30.16 in 10.0 mi NW 5.8 mph - N/A   Clear
7:56 PM 54.0 °F - 36.0 °F 51% 30.17 in 10.0 mi ENE 3.5 mph - N/A   Clear
8:56 PM 50.9 °F - 37.9 °F 61% 30.18 in 10.0 mi Calm Calm - N/A   Clear
9:56 PM 43.9 °F 42.3 °F 36.0 °F 74% 30.18 in 10.0 mi East 3.5 mph - N/A   Clear
12:56 AM 41.0 °F - 34.9 °F 79% 30.18 in 10.0 mi Calm Calm - N/A   Clear